{"data":{"norad_id":68549,"intl_designator":"2026-070H","name":"STARLINK-36204","alt_names":[],"object_type":"PAYLOAD","status":"ACTIVE","operator":null,"country":"US","launch_date":"2026-04-02","launch_site_code":"AFETR","launch_vehicle":null,"mission":null,"orbit_class":"UNKNOWN","rcs_meters":null,"size_class":null,"mass_kg":null,"dimensions":null,"purposes":["comms"],"wikipedia_slug":null,"has_3d_model":false,"image_url":null,"decayed_at":null,"tle_current":{"epoch":"2026-05-25T00:00:02.000160Z","epoch_age_seconds":68885,"freshness":"FRESH","line1":"1 68549U 26070H   26145.00002315  .00039871  00000+0  11860-2 0  9991","line2":"2 68549  53.1603   7.7764 0001254  84.9802 261.8456 15.34370122  5999","mean_motion":15.34370122,"eccentricity":0.0001254,"inclination_deg":53.1603,"raan_deg":7.7764,"arg_perigee_deg":84.9802,"mean_anomaly_deg":261.8456,"bstar":0.001186,"rev_number":599,"period_min":93.849585530446,"perigee_km":461.93419285834,"apogee_km":463.64989786292,"semimajor_km":6840.9290453606,"source":"CELESTRAK","updated_at":"2026-05-25T13:38:21.960719Z"}}}